sat.trackr.live / text

‹ back to catalog

STARLINK-37423

NORAD 68852 · 2026-094P

PAYLOAD ACTIVE UNKNOWN

§ Identity

Operator
Country
US
Launch date
2026-04-26
Launch site
AFWTR
Launch vehicle
Mass (kg)
RCS (m²)

Purposes: comms

External: N2YO · Heavens-Above · Gunter

§ Orbital elements

Epoch: 2026-09-20T00:15:32.433984Z

Period
93.91 min
Inclination
97.2833°
Eccentricity
0.0000985
Mean motion
15.33449344 rev/d
Perigee alt
464.9 km
Apogee alt
466.2 km
Semi-major
6,843.7 km
B*
4.8399e-4
RAAN
276.1597°
Arg perigee
125.3834°
Mean anomaly
234.7501°
Rev number
2,258

§ Raw data

STARLINK-374231 68852U 26094P   26263.01079206  .00015584  00000+0  48399-3 0  99922 68852  97.2833 276.1597 0000985 125.3834 234.7501 15.33449344 22587

JSON: /api/v1/satellites/68852 · /tle

For live sub-satellite position, see the globe view (requires WebGL).

§ Visibility from observer

Set your observer location to see the next 7 days of passes ≥ 10°. The values pass through the URL so the page stays shareable.

No JS? Fill the form by hand. The geolocation button needs JavaScript.